Darstellungsparameter: Aktuell verwendete Einstellungen:
Skalierung der Graphiken ... ?
xyx+y,   Skalierungsfaktor:      Skalierung: Modus: x, Faktor: 1
Darstellungszeitraum ... ?
Vom - - bis: - -   Zeitraum: 20.01.2010 - 19.01.2011
Min/Max/Avg-Anzeige ... ?
Zeige MMA aktuell
Zeige MMA Monat
Zeige MMA alles
Zeige --A aktuell
Zeige --A Monat
Zeige --A alles
Keine MMA-Anzeige
MMA:
Average (ber die Originaldaten)
MMA-Basis: 20.01.2010 - 19.01.2011
Quicknavigation für Darstellung... ?
Tage:      1T, 2T, 3T, 5T -1T -2T -3T -5T +1T +2T +3T +5T
Wochen: 1W, 2W, 3W -1W -2W -3W +1W +2W +3W
Monate: 1M, 3M, 6M -1M -3M -6M +1M +3M +6M
Jahre:    1J, 3J, 5J, 10J -1J -3J -5J -10J +1J +3J +5J +10J
Nutze für die Darstellung ... ?
Originaldaten oder ...
Mittelwerte Minima Maxima auf...
Stundenbasis Tagesbasis Wochenbasis
Monatsbasis Jahresbasis      Datenbasis: Mittelwerte auf Tagesbasis
Darstellen als:
Statistik (Auto) Statistik J:M      Darstellung:
Zur Graphik,    zurück zur Übersicht aller Sensoren.
 
Tabellarische Datenbersicht: ?
 
Sensor: Nr:Datum:Temp:Abs-Feuchte:Windchill:Wind:
Aussen-T/F 1 20-01-2010 00:00:00 1.97417 C 4.66 g/m*3 1.97 C 0 km/h
2 21-01-2010 00:00:00 2.45126 C 4.02 g/m*3 2.45 C 0 km/h
3 22-01-2010 00:00:00 2.93667 C 4.24 g/m*3 2.94 C 0 km/h
4 23-01-2010 00:00:00 -0.41333 C 3.36 g/m*3 -0.41 C 0 km/h
5 24-01-2010 00:00:00 0.27167 C 4.06 g/m*3 0.27 C 0 km/h
6 25-01-2010 00:00:00 0.01667 C 4.19 g/m*3 0.02 C 0 km/h
7 26-01-2010 00:00:00 -3.325 C 2.8 g/m*3 -3.33 C 0 km/h
8 27-01-2010 00:00:00 -5.54083 C 2.18 g/m*3 -5.54 C 0 km/h
9 28-01-2010 00:00:00 1.20667 C 4.04 g/m*3 1.21 C 0 km/h
10 29-01-2010 00:00:00 1.39083 C 4.5 g/m*3 1.39 C 0 km/h
11 30-01-2010 00:00:00 -1.54583 C 3.39 g/m*3 -1.55 C 0 km/h
12 31-01-2010 00:00:00 -1.62333 C 3.2 g/m*3 -1.62 C 0 km/h
13 01-02-2010 00:00:00 0.20167 C 3.69 g/m*3 0.2 C 0 km/h
14 02-02-2010 00:00:00 0.69916 C 4 g/m*3 0.7 C 0 km/h
15 03-02-2010 00:00:00 2.28899 C 5.05 g/m*3 2.29 C 0 km/h
16 04-02-2010 00:00:00 4.17018 C 5.55 g/m*3 4.17 C 0 km/h
17 05-02-2010 00:00:00 3.29649 C 4.9 g/m*3 3.3 C 0 km/h
18 06-02-2010 00:00:00 4.55172 C 5.47 g/m*3 4.55 C 0 km/h
19 07-02-2010 00:00:00 4.17018 C 5.02 g/m*3 4.17 C 0 km/h
20 08-02-2010 00:00:00 -0.75 C 2.85 g/m*3 -0.75 C 0 km/h
21 09-02-2010 00:00:00 -3.74483 C 2.17 g/m*3 -3.74 C 0 km/h
22 10-02-2010 00:00:00 -4.8 C 2.32 g/m*3 -4.8 C 0 km/h
23 11-02-2010 00:00:00 -3.79828 C 2.62 g/m*3 -3.8 C 0 km/h
24 12-02-2010 00:00:00 -2.14737 C 2.95 g/m*3 -2.15 C 0 km/h
25 13-02-2010 00:00:00 -2.57414 C 2.82 g/m*3 -2.57 C 0 km/h
Sensor: Nr:Datum:Temp:Abs-Feuchte:Windchill:Wind:
Aussen-T/F 26 14-02-2010 00:00:00 -2.13621 C 3.1 g/m*3 -2.14 C 0 km/h
27 15-02-2010 00:00:00 -1.12632 C 3.21 g/m*3 -1.13 C 0 km/h
28 16-02-2010 00:00:00 -1.16379 C 3.02 g/m*3 -1.16 C 0 km/h
29 17-02-2010 00:00:00 -1.61754 C 3.18 g/m*3 -1.62 C 0 km/h
30 18-02-2010 00:00:00 3.2569 C 4.56 g/m*3 3.26 C 0 km/h
31 19-02-2010 00:00:00 3.59375 C 4.12 g/m*3 3.59 C 0 km/h
32 20-02-2010 00:00:00 1.69333 C 3.53 g/m*3 1.69 C 0 km/h
33 21-02-2010 00:00:00 2.87833 C 4.25 g/m*3 2.88 C 0 km/h
34 22-02-2010 00:00:00 6.76417 C 5.24 g/m*3 6.76 C 0 km/h
35 23-02-2010 00:00:00 9.7875 C 7.07 g/m*3 9.79 C 0 km/h
36 24-02-2010 00:00:00 9.55 C 6.5 g/m*3 9.55 C 0 km/h
37 25-02-2010 00:00:00 9.58 C 5.92 g/m*3 9.58 C 0 km/h
38 26-02-2010 00:00:00 8.62667 C 5.33 g/m*3 8.63 C 0 km/h
39 27-02-2010 00:00:00 8.4025 C 4.07 g/m*3 8.4 C 0 km/h
40 28-02-2010 00:00:00 8.30667 C 5.5 g/m*3 8.31 C 0 km/h
41 01-03-2010 00:00:00 5.40917 C 3.85 g/m*3 5.41 C 0 km/h
42 02-03-2010 00:00:00 3.135 C 3.87 g/m*3 3.14 C 0 km/h
43 03-03-2010 00:00:00 2.9925 C 3.33 g/m*3 2.99 C 0 km/h
44 04-03-2010 00:00:00 2.47395 C 2.67 g/m*3 2.47 C 0 km/h
45 05-03-2010 00:00:00 0.77667 C 2.41 g/m*3 0.78 C 0 km/h
46 06-03-2010 00:00:00 -0.47083 C 3.38 g/m*3 -0.47 C 0 km/h
47 07-03-2010 00:00:00 -1.6825 C 2.27 g/m*3 -1.68 C 0 km/h
48 08-03-2010 00:00:00 -1.21083 C 1.92 g/m*3 -1.21 C 0 km/h
49 09-03-2010 00:00:00 -0.87167 C 1.76 g/m*3 -0.87 C 0 km/h
50 10-03-2010 00:00:00 1.41667 C 1.75 g/m*3 1.42 C 0 km/h
Sensor: Nr:Datum:Temp:Abs-Feuchte:Windchill:Wind:
Aussen-T/F 51 11-03-2010 00:00:00 0.40167 C 2.56 g/m*3 0.4 C 0 km/h
52 12-03-2010 00:00:00 1.61167 C 3.86 g/m*3 1.61 C 0 km/h
53 13-03-2010 00:00:00 4.36583 C 4.23 g/m*3 4.37 C 0 km/h
54 14-03-2010 00:00:00 5.79833 C 4.06 g/m*3 5.8 C 0 km/h
55 15-03-2010 00:00:00 6.445 C 5.04 g/m*3 6.45 C 0 km/h
56 16-03-2010 00:00:00 6.08067 C 5.63 g/m*3 6.08 C 0 km/h
57 17-03-2010 00:00:00 6.69417 C 4.48 g/m*3 6.69 C 0 km/h
58 18-03-2010 00:00:00 10.12333 C 4.54 g/m*3 10.12 C 0 km/h
59 19-03-2010 00:00:00 15.0225 C 4.66 g/m*3 15.02 C 0 km/h
60 20-03-2010 00:00:00 14.37667 C 8.46 g/m*3 14.38 C 0 km/h
61 21-03-2010 00:00:00 11.23667 C 8.65 g/m*3 11.24 C 0 km/h
62 22-03-2010 00:00:00 9.7575 C 7.03 g/m*3 9.76 C 0 km/h
63 23-03-2010 00:00:00 8.94 C 6.12 g/m*3 8.94 C 0 km/h
64 24-03-2010 00:00:00 11.9975 C 6.24 g/m*3 12 C 0 km/h
65 25-03-2010 00:00:00 14.27083 C 6.52 g/m*3 14.27 C 0 km/h
66 26-03-2010 00:00:00 10.0325 C 7.02 g/m*3 10.03 C 0 km/h
67 27-03-2010 00:00:00 9.34333 C 5.7 g/m*3 9.34 C 0 km/h
68 28-03-2010 00:00:00 9.93478 C 6.19 g/m*3 9.93 C 0 km/h
69 29-03-2010 00:00:00 11.88167 C 8.04 g/m*3 11.88 C 0 km/h
70 30-03-2010 00:00:00 12.70672 C 6.43 g/m*3 12.71 C 0 km/h
71 31-03-2010 00:00:00 8.18667 C 4.45 g/m*3 8.19 C 0 km/h
72 01-04-2010 00:00:00 5.84333 C 3.76 g/m*3 5.84 C 0 km/h
73 02-04-2010 00:00:00 6.48583 C 4.37 g/m*3 6.49 C 0 km/h
74 03-04-2010 00:00:00 9.73667 C 5.47 g/m*3 9.74 C 0 km/h
75 04-04-2010 00:00:00 8.98833 C 5.25 g/m*3 8.99 C 0 km/h
Sensor: Nr:Datum:Temp:Abs-Feuchte:Windchill:Wind:
Aussen-T/F 76 05-04-2010 00:00:00 9.15083 C 4.56 g/m*3 9.15 C 0 km/h
77 06-04-2010 00:00:00 10.38167 C 4.41 g/m*3 10.38 C 0 km/h
78 07-04-2010 00:00:00 13.61167 C 5.07 g/m*3 13.61 C 0 km/h
79 08-04-2010 00:00:00 12.375 C 6.96 g/m*3 12.38 C 0 km/h
80 09-04-2010 00:00:00 11.49917 C 5.91 g/m*3 11.5 C 0 km/h
81 10-04-2010 00:00:00 11.3575 C 4.66 g/m*3 11.36 C 0 km/h
82 11-04-2010 00:00:00 7.86667 C 4.35 g/m*3 7.87 C 0 km/h
83 12-04-2010 00:00:00 7.44958 C 5.35 g/m*3 7.45 C 0 km/h
84 13-04-2010 00:00:00 11.85583 C 6.16 g/m*3 11.86 C 0 km/h
85 14-04-2010 00:00:00 11.76417 C 4.66 g/m*3 11.76 C 0 km/h
86 15-04-2010 00:00:00 11.8575 C 5 g/m*3 11.86 C 0 km/h
87 16-04-2010 00:00:00 9.71583 C 4.32 g/m*3 9.72 C 0 km/h
88 17-04-2010 00:00:00 11.1225 C 4.54 g/m*3 11.12 C 0 km/h
89 18-04-2010 00:00:00 13.27917 C 4.52 g/m*3 13.28 C 0 km/h
90 19-04-2010 00:00:00 11.18333 C 5.12 g/m*3 11.18 C 0 km/h
91 20-04-2010 00:00:00 11.13833 C 5.11 g/m*3 11.14 C 0 km/h
92 21-04-2010 00:00:00 7.34417 C 3.84 g/m*3 7.34 C 0 km/h
93 22-04-2010 00:00:00 8.35333 C 3.82 g/m*3 8.35 C 0 km/h
94 23-04-2010 00:00:00 11.44917 C 4.09 g/m*3 11.45 C 0 km/h
95 24-04-2010 00:00:00 14.91167 C 4.56 g/m*3 14.91 C 0 km/h
96 25-04-2010 00:00:00 17.1075 C 5.25 g/m*3 17.11 C 0 km/h
97 26-04-2010 00:00:00 15.72269 C 7.07 g/m*3 15.72 C 0 km/h
98 27-04-2010 00:00:00 15.50417 C 6.31 g/m*3 15.5 C 0 km/h
99 28-04-2010 00:00:00 16.8925 C 6.33 g/m*3 16.89 C 0 km/h
100 29-04-2010 00:00:00 19.21417 C 6.68 g/m*3 19.21 C 0 km/h
Sensor: Nr:Datum:Temp:Abs-Feuchte:Windchill:Wind:
Aussen-T/F 101 30-04-2010 00:00:00 18.69583 C 7.11 g/m*3 18.7 C 0 km/h
102 01-05-2010 00:00:00 15.09917 C 6.78 g/m*3 15.1 C 0 km/h
103 02-05-2010 00:00:00 13.48583 C 7.64 g/m*3 13.49 C 0 km/h
104 03-05-2010 00:00:00 10.01667 C 6.94 g/m*3 10.02 C 0 km/h
105 04-05-2010 00:00:00 9.78833 C 5.53 g/m*3 9.79 C 0 km/h
106 05-05-2010 00:00:00 10.09083 C 3.78 g/m*3 10.09 C 0 km/h
107 06-05-2010 00:00:00 6.68167 C 6.78 g/m*3 6.68 C 0 km/h
108 07-05-2010 00:00:00 6.49417 C 6.66 g/m*3 6.49 C 0 km/h
109 08-05-2010 00:00:00 11.06218 C 6.38 g/m*3 11.06 C 0 km/h
110 09-05-2010 00:00:00 12.575 C 6.93 g/m*3 12.58 C 0 km/h
111 10-05-2010 00:00:00 11.99917 C 6.67 g/m*3 12 C 0 km/h
112 11-05-2010 00:00:00 11.53167 C 6.84 g/m*3 11.53 C 0 km/h
113 12-05-2010 00:00:00 8.62333 C 6.33 g/m*3 8.62 C 0 km/h
114 13-05-2010 00:00:00 8.07667 C 6.31 g/m*3 8.08 C 0 km/h
115 14-05-2010 00:00:00 8.97333 C 7.22 g/m*3 8.97 C 0 km/h
116 15-05-2010 00:00:00 10.6825 C 5.92 g/m*3 10.68 C 0 km/h
117 16-05-2010 00:00:00 13.32917 C 5.32 g/m*3 13.33 C 0 km/h
118 17-05-2010 00:00:00 10.56917 C 7.13 g/m*3 10.57 C 0 km/h
119 18-05-2010 00:00:00 11.44333 C 6.07 g/m*3 11.44 C 0 km/h
120 19-05-2010 00:00:00 10.30583 C 6.32 g/m*3 10.31 C 0 km/h
121 20-05-2010 00:00:00 12.64034 C 6.31 g/m*3 12.64 C 0 km/h
122 21-05-2010 00:00:00 16.54333 C 7.66 g/m*3 16.54 C 0 km/h
123 22-05-2010 00:00:00 18.32583 C 7.75 g/m*3 18.33 C 0 km/h
124 23-05-2010 00:00:00 20.32083 C 8.65 g/m*3 20.32 C 0 km/h
125 24-05-2010 00:00:00 21.23 C 8.94 g/m*3 21.23 C 0 km/h
Sensor: Nr:Datum:Temp:Abs-Feuchte:Windchill:Wind:
Aussen-T/F 126 25-05-2010 00:00:00 20.64583 C 7.99 g/m*3 20.65 C 0 km/h
127 26-05-2010 00:00:00 15.41917 C 9.07 g/m*3 15.42 C 0 km/h
128 27-05-2010 00:00:00 15.6175 C 8.18 g/m*3 15.62 C 0 km/h
129 28-05-2010 00:00:00 17.3075 C 7.94 g/m*3 17.31 C 0 km/h
130 29-05-2010 00:00:00 16.34 C 7.23 g/m*3 16.34 C 0 km/h
131 30-05-2010 00:00:00 14.5975 C 8.93 g/m*3 14.6 C 0 km/h
132 31-05-2010 00:00:00 11.56667 C 8.16 g/m*3 11.57 C 0 km/h
133 01-06-2010 00:00:00 16.01833 C 8.41 g/m*3 16.02 C 0 km/h
134 02-06-2010 00:00:00 17.66471 C 7.79 g/m*3 17.66 C 0 km/h
135 03-06-2010 00:00:00 20.49083 C 7.88 g/m*3 20.49 C 0 km/h
136 04-06-2010 00:00:00 21.43 C 7.91 g/m*3 21.43 C 0 km/h
137 05-06-2010 00:00:00 22.97667 C 8.82 g/m*3 22.98 C 0 km/h
138 06-06-2010 00:00:00 20.91333 C 11.1 g/m*3 20.91 C 0 km/h
139 07-06-2010 00:00:00 19.58833 C 9.05 g/m*3 19.59 C 0 km/h
140 08-06-2010 00:00:00 19.76833 C 9.52 g/m*3 19.77 C 0 km/h
141 09-06-2010 00:00:00 22.5625 C 11.34 g/m*3 22.56 C 0 km/h
142 10-06-2010 00:00:00 22.76417 C 13.55 g/m*3 22.76 C 0 km/h
143 11-06-2010 00:00:00 22.89167 C 11.59 g/m*3 22.89 C 0 km/h
144 12-06-2010 00:00:00 18.84917 C 10.25 g/m*3 18.85 C 0 km/h
145 13-06-2010 00:00:00 18.25083 C 7.8 g/m*3 18.25 C 0 km/h
146 14-06-2010 00:00:00 19.76667 C 7.8 g/m*3 19.77 C 0 km/h
147 15-06-2010 00:00:00 18.9 C 8.06 g/m*3 18.9 C 0 km/h
148 16-06-2010 00:00:00 18.82833 C 6.18 g/m*3 18.83 C 0 km/h
149 17-06-2010 00:00:00 15.08583 C 9.23 g/m*3 15.09 C 0 km/h
150 18-06-2010 00:00:00 15.2325 C 9.35 g/m*3 15.23 C 0 km/h
Sensor: Nr:Datum:Temp:Abs-Feuchte:Windchill:Wind:
Aussen-T/F 151 19-06-2010 00:00:00 14.2725 C 6.27 g/m*3 14.27 C 0 km/h
152 20-06-2010 00:00:00 13.20333 C 6.8 g/m*3 13.2 C 0 km/h
153 21-06-2010 00:00:00 14.11083 C 6.37 g/m*3 14.11 C 0 km/h
154 22-06-2010 00:00:00 17.38667 C 7.03 g/m*3 17.39 C 0 km/h
155 23-06-2010 00:00:00 19.75917 C 8.12 g/m*3 19.76 C 0 km/h
156 24-06-2010 00:00:00 22.54833 C 8.68 g/m*3 22.55 C 0 km/h
157 25-06-2010 00:00:00 23.37 C 8.65 g/m*3 23.37 C 0 km/h
158 26-06-2010 00:00:00 23.635 C 8.77 g/m*3 23.64 C 0 km/h
159 27-06-2010 00:00:00 24.49417 C 9.01 g/m*3 24.49 C 0 km/h
160 28-06-2010 00:00:00 25.25546 C 9.1 g/m*3 25.26 C 0 km/h
161 29-06-2010 00:00:00 24.86167 C 9.83 g/m*3 24.86 C 0 km/h
162 30-06-2010 00:00:00 24.6175 C 10.06 g/m*3 24.62 C 0 km/h
163 01-07-2010 00:00:00 25.8425 C 9.72 g/m*3 25.84 C 0 km/h
164 02-07-2010 00:00:00 26.96667 C 9.63 g/m*3 26.97 C 0 km/h
165 03-07-2010 00:00:00 26.33 C 11.31 g/m*3 26.33 C 0 km/h
166 04-07-2010 00:00:00 26.44833 C 12.05 g/m*3 26.45 C 0 km/h
167 05-07-2010 00:00:00 22.02083 C 9.04 g/m*3 22.02 C 0 km/h
168 06-07-2010 00:00:00 20.17833 C 8.34 g/m*3 20.18 C 0 km/h
169 07-07-2010 00:00:00 22.53417 C 8.16 g/m*3 22.53 C 0 km/h
170 08-07-2010 00:00:00 26.43417 C 8.69 g/m*3 26.43 C 0 km/h
171 09-07-2010 00:00:00 27.51333 C 9.42 g/m*3 27.51 C 0 km/h
172 10-07-2010 00:00:00 29.25667 C 10.76 g/m*3 29.26 C 0 km/h
173 11-07-2010 00:00:00 28.48319 C 12.85 g/m*3 28.48 C 0 km/h
174 12-07-2010 00:00:00 27.1175 C 11.1 g/m*3 27.12 C 0 km/h
175 13-07-2010 00:00:00 25.36083 C 10.39 g/m*3 25.36 C 0 km/h
Sensor: Nr:Datum:Temp:Abs-Feuchte:Windchill:Wind:
Aussen-T/F 176 14-07-2010 00:00:00 25.98917 C 11.73 g/m*3 25.99 C 0 km/h
177 15-07-2010 00:00:00 22.6525 C 8.81 g/m*3 22.65 C 0 km/h
178 16-07-2010 00:00:00 23.97667 C 8.47 g/m*3 23.98 C 0 km/h
179 17-07-2010 00:00:00 21.99167 C 10.18 g/m*3 21.99 C 0 km/h
180 18-07-2010 00:00:00 21.73833 C 7.35 g/m*3 21.74 C 0 km/h
181 19-07-2010 00:00:00 23.63167 C 8.01 g/m*3 23.63 C 0 km/h
182 20-07-2010 00:00:00 25.03833 C 8.46 g/m*3 25.04 C 0 km/h
183 21-07-2010 00:00:00 24.73833 C 9.31 g/m*3 24.74 C 0 km/h
184 22-07-2010 00:00:00 21.34917 C 11.61 g/m*3 21.35 C 0 km/h
185 23-07-2010 00:00:00 20.17059 C 11.52 g/m*3 20.17 C 0 km/h
186 24-07-2010 00:00:00 19.00667 C 9.15 g/m*3 19.01 C 0 km/h
187 25-07-2010 00:00:00 17.26833 C 7.8 g/m*3 17.27 C 0 km/h
188 26-07-2010 00:00:00 17.2925 C 11.46 g/m*3 17.29 C 0 km/h
189 27-07-2010 00:00:00 19.815 C 10.06 g/m*3 19.82 C 0 km/h
190 28-07-2010 00:00:00 20.5075 C 11.17 g/m*3 20.51 C 0 km/h
191 29-07-2010 00:00:00 16.32417 C 11.42 g/m*3 16.32 C 0 km/h
192 30-07-2010 00:00:00 19.665 C 9.34 g/m*3 19.67 C 0 km/h
193 31-07-2010 00:00:00 20.62417 C 9.08 g/m*3 20.62 C 0 km/h
194 01-08-2010 00:00:00 22.90833 C 11.98 g/m*3 22.91 C 0 km/h
195 02-08-2010 00:00:00 19.60917 C 11.25 g/m*3 19.61 C 0 km/h
196 03-08-2010 00:00:00 18.94167 C 10.12 g/m*3 18.94 C 0 km/h
197 04-08-2010 00:00:00 19.62269 C 9.16 g/m*3 19.62 C 0 km/h
198 05-08-2010 00:00:00 18.49417 C 10 g/m*3 18.49 C 0 km/h
199 06-08-2010 00:00:00 19.04667 C 8.08 g/m*3 19.05 C 0 km/h
200 07-08-2010 00:00:00 19.46583 C 7.91 g/m*3 19.47 C 0 km/h
Sensor: Nr:Datum:Temp:Abs-Feuchte:Windchill:Wind:
Aussen-T/F 201 08-08-2010 00:00:00 18.485 C 11.68 g/m*3 18.49 C 0 km/h
202 09-08-2010 00:00:00 19.515 C 10.42 g/m*3 19.52 C 0 km/h
203 10-08-2010 00:00:00 22.13583 C 9.74 g/m*3 22.14 C 0 km/h
204 11-08-2010 00:00:00 20.32833 C 12.64 g/m*3 20.33 C 0 km/h
205 12-08-2010 00:00:00 19.10917 C 11.28 g/m*3 19.11 C 0 km/h
206 13-08-2010 00:00:00 18.77833 C 9.07 g/m*3 18.78 C 0 km/h
207 14-08-2010 00:00:00 19.9675 C 9.59 g/m*3 19.97 C 0 km/h
208 15-08-2010 00:00:00 16.88667 C 11.8 g/m*3 16.89 C 0 km/h
209 16-08-2010 00:00:00 17.07479 C 11.15 g/m*3 17.07 C 0 km/h
210 17-08-2010 00:00:00 16.06667 C 10.71 g/m*3 16.07 C 0 km/h
211 18-08-2010 00:00:00 18.40917 C 9.91 g/m*3 18.41 C 0 km/h
212 19-08-2010 00:00:00 18.88917 C 8.2 g/m*3 18.89 C 0 km/h
213 20-08-2010 00:00:00 20.42605 C 9.9 g/m*3 20.43 C 0 km/h
214 21-08-2010 00:00:00 23.76417 C 11.32 g/m*3 23.76 C 0 km/h
215 22-08-2010 00:00:00 23.01667 C 12.14 g/m*3 23.02 C 0 km/h
216 23-08-2010 00:00:00 21.205 C 13.12 g/m*3 21.21 C 0 km/h
217 24-08-2010 00:00:00 19.27083 C 7.86 g/m*3 19.27 C 0 km/h
218 25-08-2010 00:00:00 17.61917 C 7.68 g/m*3 17.62 C 0 km/h
219 26-08-2010 00:00:00 20.68083 C 11.52 g/m*3 20.68 C 0 km/h
220 27-08-2010 00:00:00 18.37667 C 13.18 g/m*3 18.38 C 0 km/h
221 28-08-2010 00:00:00 14.0675 C 8.89 g/m*3 14.07 C 0 km/h
222 29-08-2010 00:00:00 13.03167 C 8.58 g/m*3 13.03 C 0 km/h
223 30-08-2010 00:00:00 12.5675 C 8.53 g/m*3 12.57 C 0 km/h
224 31-08-2010 00:00:00 15.42917 C 8.4 g/m*3 15.43 C 0 km/h
225 01-09-2010 00:00:00 14.82437 C 8.4 g/m*3 14.82 C 0 km/h
Sensor: Nr:Datum:Temp:Abs-Feuchte:Windchill:Wind:
Aussen-T/F 226 02-09-2010 00:00:00 14.95333 C 8.79 g/m*3 14.95 C 0 km/h
227 03-09-2010 00:00:00 15.91417 C 9.06 g/m*3 15.91 C 0 km/h
228 04-09-2010 00:00:00 16.71417 C 8.43 g/m*3 16.71 C 0 km/h
229 05-09-2010 00:00:00 15.205 C 7.52 g/m*3 15.21 C 0 km/h
230 06-09-2010 00:00:00 15.675 C 6.76 g/m*3 15.68 C 0 km/h
231 07-09-2010 00:00:00 13.36083 C 8.36 g/m*3 13.36 C 0 km/h
232 08-09-2010 00:00:00 15.545 C 10.94 g/m*3 15.55 C 0 km/h
233 09-09-2010 00:00:00 16.20583 C 9.61 g/m*3 16.21 C 0 km/h
234 10-09-2010 00:00:00 16.18 C 10.13 g/m*3 16.18 C 0 km/h
235 11-09-2010 00:00:00 18.13417 C 10.44 g/m*3 18.13 C 0 km/h
236 12-09-2010 00:00:00 16.21667 C 10.52 g/m*3 16.22 C 0 km/h
237 13-09-2010 00:00:00 15.67583 C 9.31 g/m*3 15.68 C 0 km/h
238 14-09-2010 00:00:00 16.63697 C 8.96 g/m*3 16.64 C 0 km/h
239 15-09-2010 00:00:00 16.3175 C 7.82 g/m*3 16.32 C 0 km/h
240 16-09-2010 00:00:00 14.07 C 8.33 g/m*3 14.07 C 0 km/h
241 17-09-2010 00:00:00 13.76667 C 7.53 g/m*3 13.77 C 0 km/h
242 18-09-2010 00:00:00 11.45083 C 6.84 g/m*3 11.45 C 0 km/h
243 19-09-2010 00:00:00 11.7425 C 6.69 g/m*3 11.74 C 0 km/h
244 20-09-2010 00:00:00 14.01 C 7.27 g/m*3 14.01 C 0 km/h
245 21-09-2010 00:00:00 14.27 C 8.52 g/m*3 14.27 C 0 km/h
246 22-09-2010 00:00:00 15.86667 C 9.22 g/m*3 15.87 C 0 km/h
247 23-09-2010 00:00:00 16.56167 C 9.98 g/m*3 16.56 C 0 km/h
248 24-09-2010 00:00:00 14.165 C 11.47 g/m*3 14.17 C 0 km/h
249 25-09-2010 00:00:00 12.41833 C 7.9 g/m*3 12.42 C 0 km/h
250 26-09-2010 00:00:00 11.2425 C 7.29 g/m*3 11.24 C 0 km/h
Sensor: Nr:Datum:Temp:Abs-Feuchte:Windchill:Wind:
Aussen-T/F 251 27-09-2010 00:00:00 9.86807 C 7.48 g/m*3 9.87 C 0 km/h
252 28-09-2010 00:00:00 10.93083 C 9.4 g/m*3 10.93 C 0 km/h
253 29-09-2010 00:00:00 13.39417 C 8.9 g/m*3 13.39 C 0 km/h
254 30-09-2010 00:00:00 11.89667 C 8.83 g/m*3 11.9 C 0 km/h
255 01-10-2010 00:00:00 12.33667 C 9.1 g/m*3 12.34 C 0 km/h
256 02-10-2010 00:00:00 13.4525 C 10.36 g/m*3 13.45 C 0 km/h
257 03-10-2010 00:00:00 17.83583 C 10.56 g/m*3 17.84 C 0 km/h
258 04-10-2010 00:00:00 16.905 C 9.67 g/m*3 16.91 C 0 km/h
259 05-10-2010 00:00:00 15.64833 C 10.9 g/m*3 15.65 C 0 km/h
260 06-10-2010 00:00:00 17.22333 C 9.99 g/m*3 17.22 C 0 km/h
261 07-10-2010 00:00:00 16.31167 C 10.3 g/m*3 16.31 C 0 km/h
262 08-10-2010 00:00:00 16.02917 C 9.37 g/m*3 16.03 C 0 km/h
263 09-10-2010 00:00:00 13.1475 C 8.13 g/m*3 13.15 C 0 km/h
264 10-10-2010 00:00:00 11.6125 C 6.4 g/m*3 11.61 C 0 km/h
265 11-10-2010 00:00:00 10.90084 C 5.45 g/m*3 10.9 C 0 km/h
266 12-10-2010 00:00:00 8.71917 C 5.9 g/m*3 8.72 C 0 km/h
267 13-10-2010 00:00:00 7.475 C 5.54 g/m*3 7.48 C 0 km/h
268 14-10-2010 00:00:00 7.55583 C 5.99 g/m*3 7.56 C 0 km/h
269 15-10-2010 00:00:00 10.475 C 7.36 g/m*3 10.48 C 0 km/h
270 16-10-2010 00:00:00 8.375 C 7.62 g/m*3 8.38 C 0 km/h
271 17-10-2010 00:00:00 7.22667 C 6.33 g/m*3 7.23 C 0 km/h
272 18-10-2010 00:00:00 6.71833 C 5.58 g/m*3 6.72 C 0 km/h
273 19-10-2010 00:00:00 7.28167 C 6.47 g/m*3 7.28 C 0 km/h
274 20-10-2010 00:00:00 6.14167 C 5.97 g/m*3 6.14 C 0 km/h
275 21-10-2010 00:00:00 5.27 C 4.63 g/m*3 5.27 C 0 km/h
Sensor: Nr:Datum:Temp:Abs-Feuchte:Windchill:Wind:
Aussen-T/F 276 22-10-2010 00:00:00 4.20167 C 4.11 g/m*3 4.2 C 0 km/h
277 23-10-2010 00:00:00 4.37899 C 4.82 g/m*3 4.38 C 0 km/h
278 24-10-2010 00:00:00 8.55667 C 5.66 g/m*3 8.56 C 0 km/h
279 25-10-2010 00:00:00 6.1525 C 5.22 g/m*3 6.15 C 0 km/h
280 26-10-2010 00:00:00 3.62417 C 5.12 g/m*3 3.62 C 0 km/h
281 27-10-2010 00:00:00 8.14917 C 4.91 g/m*3 8.15 C 0 km/h
282 28-10-2010 00:00:00 9.1725 C 5.55 g/m*3 9.17 C 0 km/h
283 29-10-2010 00:00:00 6.48333 C 6.48 g/m*3 6.48 C 0 km/h
284 02-11-2010 00:00:00 11.31548 C 6.81 g/m*3 11.32 C 0 km/h
285 03-11-2010 00:00:00 13.10333 C 7.84 g/m*3 13.1 C 0 km/h
286 04-11-2010 00:00:00 16.41167 C 8.7 g/m*3 16.41 C 0 km/h
287 05-11-2010 00:00:00 14.51917 C 7.32 g/m*3 14.52 C 0 km/h
288 06-11-2010 00:00:00 10.40917 C 7.73 g/m*3 10.41 C 0 km/h
289 07-11-2010 00:00:00 6.86917 C 7.11 g/m*3 6.87 C 0 km/h
290 08-11-2010 00:00:00 4.65583 C 5.68 g/m*3 4.66 C 0 km/h
291 09-11-2010 00:00:00 6.65667 C 6.48 g/m*3 6.66 C 0 km/h
292 10-11-2010 00:00:00 7.08319 C 6.48 g/m*3 7.08 C 0 km/h
293 11-11-2010 00:00:00 5.84167 C 5.32 g/m*3 5.84 C 0 km/h
294 12-11-2010 00:00:00 11.04083 C 6.73 g/m*3 11.04 C 0 km/h
295 13-11-2010 00:00:00 14.51917 C 8.83 g/m*3 14.52 C 0 km/h
296 14-11-2010 00:00:00 14.60833 C 7.79 g/m*3 14.61 C 0 km/h
297 15-11-2010 00:00:00 9.47833 C 6.15 g/m*3 9.48 C 0 km/h
298 16-11-2010 00:00:00 6.0125 C 5.77 g/m*3 6.01 C 0 km/h
299 17-11-2010 00:00:00 5.3125 C 5.17 g/m*3 5.31 C 0 km/h
300 18-11-2010 00:00:00 5.61917 C 5.95 g/m*3 5.62 C 0 km/h
Sensor: Nr:Datum:Temp:Abs-Feuchte:Windchill:Wind:
Aussen-T/F 301 19-11-2010 00:00:00 6.4275 C 6.1 g/m*3 6.43 C 0 km/h
302 20-11-2010 00:00:00 4.8325 C 5.94 g/m*3 4.83 C 0 km/h
303 21-11-2010 00:00:00 4.48333 C 4.84 g/m*3 4.48 C 0 km/h
304 22-11-2010 00:00:00 4.47417 C 4.96 g/m*3 4.47 C 0 km/h
305 23-11-2010 00:00:00 4.54118 C 4.59 g/m*3 4.54 C 0 km/h
306 24-11-2010 00:00:00 3.415 C 4.9 g/m*3 3.42 C 0 km/h
307 25-11-2010 00:00:00 1.74083 C 4.39 g/m*3 1.74 C 0 km/h
308 26-11-2010 00:00:00 -0.29083 C 4.18 g/m*3 -0.29 C 0 km/h
309 27-11-2010 00:00:00 -1.99167 C 3.56 g/m*3 -1.99 C 0 km/h
310 28-11-2010 00:00:00 -1.325 C 3.55 g/m*3 -1.33 C 0 km/h
311 29-11-2010 00:00:00 -1.55833 C 3.51 g/m*3 -1.56 C 0 km/h
312 30-11-2010 00:00:00 -1.9425 C 3.4 g/m*3 -1.94 C 0 km/h
313 01-12-2010 00:00:00 -5.7325 C 1.99 g/m*3 -5.73 C 0 km/h
314 02-12-2010 00:00:00 -7.03167 C 2.03 g/m*3 -7.03 C 0 km/h
315 03-12-2010 00:00:00 -7.38583 C 2.19 g/m*3 -7.39 C 0 km/h
316 04-12-2010 00:00:00 -3.48167 C 2.61 g/m*3 -3.48 C 0 km/h
317 05-12-2010 00:00:00 0.91667 C 3.38 g/m*3 0.92 C 0 km/h
318 06-12-2010 00:00:00 0.24538 C 4.01 g/m*3 0.25 C 0 km/h
319 07-12-2010 00:00:00 -0.20833 C 3.88 g/m*3 -0.21 C 0 km/h
320 08-12-2010 00:00:00 -0.25917 C 4.32 g/m*3 -0.26 C 0 km/h
321 09-12-2010 00:00:00 0.61333 C 3.92 g/m*3 0.61 C 0 km/h
322 10-12-2010 00:00:00 1.73333 C 4.69 g/m*3 1.73 C 0 km/h
323 11-12-2010 00:00:00 4.07583 C 5.18 g/m*3 4.08 C 0 km/h
324 12-12-2010 00:00:00 3.085 C 4.57 g/m*3 3.09 C 0 km/h
325 13-12-2010 00:00:00 -4.44833 C 2.51 g/m*3 -4.45 C 0 km/h
Sensor: Nr:Datum:Temp:Abs-Feuchte:Windchill:Wind:
Aussen-T/F 326 14-12-2010 00:00:00 -3.65833 C 2.82 g/m*3 -3.66 C 0 km/h
327 15-12-2010 00:00:00 -3.1275 C 2.86 g/m*3 -3.13 C 0 km/h
328 16-12-2010 00:00:00 -3.4675 C 2.96 g/m*3 -3.47 C 0 km/h
329 17-12-2010 00:00:00 -2.77417 C 2.92 g/m*3 -2.77 C 0 km/h
330 18-12-2010 00:00:00 -4.65833 C 2.74 g/m*3 -4.66 C 0 km/h
331 19-12-2010 00:00:00 -0.7125 C 3.86 g/m*3 -0.71 C 0 km/h
332 20-12-2010 00:00:00 -1.53667 C 3.48 g/m*3 -1.54 C 0 km/h
333 21-12-2010 00:00:00 -0.65546 C 4 g/m*3 -0.66 C 0 km/h
334 22-12-2010 00:00:00 0.9225 C 4.66 g/m*3 0.92 C 0 km/h
335 23-12-2010 00:00:00 -0.36833 C 4.23 g/m*3 -0.37 C 0 km/h
336 24-12-2010 00:00:00 -1.77438 C 3.53 g/m*3 -1.77 C 0 km/h
337 25-12-2010 00:00:00 -5.4775 C 2.37 g/m*3 -5.48 C 0 km/h
338 26-12-2010 00:00:00 -4.87833 C 2.59 g/m*3 -4.88 C 0 km/h
339 27-12-2010 00:00:00 -2.21833 C 3.28 g/m*3 -2.22 C 0 km/h
340 28-12-2010 00:00:00 -2.07899 C 3.35 g/m*3 -2.08 C 0 km/h
341 29-12-2010 00:00:00 -0.255 C 3.76 g/m*3 -0.26 C 0 km/h
342 30-12-2010 00:00:00 -0.55333 C 3.62 g/m*3 -0.55 C 0 km/h
343 31-12-2010 00:00:00 -1.09187 C 3.57 g/m*3 -1.09 C 0 km/h
344 01-01-2011 00:00:00 1.07311 C 4.52 g/m*3 1.07 C 0 km/h
345 02-01-2011 00:00:00 0.8025 C 4.39 g/m*3 0.8 C 0 km/h
346 03-01-2011 00:00:00 -0.9125 C 3.88 g/m*3 -0.91 C 0 km/h
347 04-01-2011 00:00:00 -2.36667 C 3.35 g/m*3 -2.37 C 0 km/h
348 05-01-2011 00:00:00 -3.83583 C 2.66 g/m*3 -3.84 C 0 km/h
349 06-01-2011 00:00:00 3.72667 C 5.49 g/m*3 3.73 C 0 km/h
350 07-01-2011 00:00:00 6.91833 C 6.93 g/m*3 6.92 C 0 km/h
Sensor: Nr:Datum:Temp:Abs-Feuchte:Windchill:Wind:
Aussen-T/F 351 08-01-2011 00:00:00 10.5675 C 7.09 g/m*3 10.57 C 0 km/h
352 09-01-2011 00:00:00 5.08655 C 5.84 g/m*3 5.09 C 0 km/h
353 10-01-2011 00:00:00 0.7175 C 4.39 g/m*3 0.72 C 0 km/h
354 11-01-2011 00:00:00 3.43667 C 4.81 g/m*3 3.44 C 0 km/h
355 12-01-2011 00:00:00 5.44 C 5.5 g/m*3 5.44 C 0 km/h
356 13-01-2011 00:00:00 11.80333 C 8.2 g/m*3 11.8 C 0 km/h
357 14-01-2011 00:00:00 11.77417 C 6.94 g/m*3 11.77 C 0 km/h
358 15-01-2011 00:00:00 8.68167 C 5.98 g/m*3 8.68 C 0 km/h
359 16-01-2011 00:00:00 6.84167 C 5.88 g/m*3 6.84 C 0 km/h
360 17-01-2011 00:00:00 3.62917 C 5.41 g/m*3 3.63 C 0 km/h
361 18-01-2011 00:00:00 7.28833 C 6.01 g/m*3 7.29 C 0 km/h
362 19-01-2011 00:00:00 3.30833 C 4.71 g/m*3 3.31 C 0 km/h

Maximal/Minimal-Werte vom 20.01.2010 - 19.01.2011

Sensor Min Max Avg
Temp
(Aussen-T/F)
-10.7 °C
03-12-2010  00:44:04
36 °C
10-07-2010  17:47:03
10.91 °C
Abs-Feuchte
(Aussen-T/F)
1.75 g/m*3
10-03-2010  00:00:00
13.55 g/m*3
10-06-2010  00:00:00
6.64 g/m*3
Windchill
(Aussen-T/F)
-7.39 C
03-12-2010  00:00:00
29.26 C
10-07-2010  00:00:00
10.62 C

Die Daten stammen von einer Davis Vantage Pro 2 Wetter-Station und werden unter Linux mit der Software wview2wettercgi und aufbereitet. Alle Angaben erfolgen ohne Gewähr für ihre Vollständigkeit oder Richtigkeit.
Kontakt: Rainer Krienke krienke@uni-koblenz.de . Meine Webseiten an der Uni Koblenz oder privat.
Version: $Revision: 0.78 $